owner,sensor,date,latitude,longitude,vertical_datum,direction_of_sea_water_velocity,sea_water_speed,upward_sea_water_velocity,qcFlag 
TABS,ioos:station:wmo:42050:1,2013-12-01T00:00:00Z,28.8425,-94.2433,2.0,219.139277,16.41287604,-99999.0,'11111222,11111222,99999999' 
TABS,ioos:station:wmo:42050:1,2013-12-01T00:30:00Z,28.8425,-94.2433,2.0,219.4071079,16.39807916,-99999.0,'11111222,11111222,99999999' 
TABS,ioos:station:wmo:42050:1,2013-12-01T01:00:00Z,28.8425,-94.2433,2.0,229.3411014,14.10482542,-99999.0,'11111222,11111222,99999999' 
TABS,ioos:station:wmo:42050:1,2013-12-01T01:30:00Z,28.8425,-94.2433,2.0,241.3728372,11.1875824,-99999.0,'11111222,11111222,99999999' 
TABS,ioos:station:wmo:42050:1,2013-12-01T02:00:00Z,28.8425,-94.2433,2.0,243.5667089,11.63652869,-99999.0,'11111222,11111222,99999999' 
TABS,ioos:station:wmo:42050:1,2013-12-01T02:30:00Z,28.8425,-94.2433,2.0,249.0061693,10.27183041,-99999.0,'11111222,11111222,99999999' 
TABS,ioos:station:wmo:42050:1,2013-12-01T03:00:00Z,28.8425,-94.2433,2.0,269.701167,7.680104166,-99999.0,'11133222,11111222,99999999' 
TABS,ioos:station:wmo:42050:1,2013-12-01T03:30:00Z,28.8425,-94.2433,2.0,269.1374662,7.310827587,-99999.0,'11133222,11111222,99999999' 
TABS,ioos:station:wmo:42050:1,2013-12-01T04:00:00Z,28.8425,-94.2433,2.0,275.1877317,7.29989726,-99999.0,'11133222,11111222,99999999' 
TABS,ioos:station:wmo:42050:1,2013-12-01T04:30:00Z,28.8425,-94.2433,2.0,245.5180736,5.043431372,-99999.0,'11133222,11111222,99999999' 
TABS,ioos:station:wmo:42050:1,2013-12-01T05:00:00Z,28.8425,-94.2433,2.0,266.4284302,6.903404957,-99999.0,'11133222,11111222,99999999' 
TABS,ioos:station:wmo:42050:1,2013-12-01T05:30:00Z,28.8425,-94.2433,2.0,284.2540988,9.585076943,-99999.0,'11133222,11111222,99999999' 
TABS,ioos:station:wmo:42050:1,2013-12-01T06:00:00Z,28.8425,-94.2433,2.0,286.7855031,7.029495003,-99999.0,'11133222,11111222,99999999' 
TABS,ioos:station:wmo:42050:1,2013-12-01T06:30:00Z,28.8425,-94.2433,2.0,250.7742629,7.106314094,-99999.0,'11133222,11111222,99999999' 
TABS,ioos:station:wmo:42050:1,2013-12-01T07:00:00Z,28.8425,-94.2433,2.0,261.1978913,14.11623533,-99999.0,'11111222,11111222,99999999' 
TABS,ioos:station:wmo:42050:1,2013-12-01T07:30:00Z,28.8425,-94.2433,2.0,244.9509287,17.40717668,-99999.0,'11111222,11111222,99999999' 
TABS,ioos:station:wmo:42050:1,2013-12-01T08:00:00Z,28.8425,-94.2433,2.0,234.3295011,19.10418802,-99999.0,'11111222,11111222,99999999' 
TABS,ioos:station:wmo:42050:1,2013-12-01T08:30:00Z,28.8425,-94.2433,2.0,240.6067607,17.76707066,-99999.0,'11111222,11111222,99999999' 
TABS,ioos:station:wmo:42050:1,2013-12-01T09:00:00Z,28.8425,-94.2433,2.0,240.1674363,21.97153841,-99999.0,'11111222,11111222,99999999' 
TABS,ioos:station:wmo:42050:1,2013-12-01T09:30:00Z,28.8425,-94.2433,2.0,238.8614513,26.47435929,-99999.0,'11111222,11111222,99999999' 
TABS,ioos:station:wmo:42050:1,2013-12-01T10:00:00Z,28.8425,-94.2433,2.0,236.6774152,25.92167433,-99999.0,'11111222,11111222,99999999' 
TABS,ioos:station:wmo:42050:1,2013-12-01T10:30:00Z,28.8425,-94.2433,2.0,233.0974858,24.84800394,-99999.0,'11111222,11111222,99999999' 
TABS,ioos:station:wmo:42050:1,2013-12-01T11:00:00Z,28.8425,-94.2433,2.0,231.7869926,23.21437486,-99999.0,'11111222,11111222,99999999' 
TABS,ioos:station:wmo:42050:1,2013-12-01T11:30:00Z,28.8425,-94.2433,2.0,240.2765849,26.05845928,-99999.0,'11111222,11111222,99999999' 
TABS,ioos:station:wmo:42050:1,2013-12-01T12:00:00Z,28.8425,-94.2433,2.0,247.0455462,23.0773157,-99999.0,'11111222,11111222,99999999' 
TABS,ioos:station:wmo:42050:1,2013-12-01T12:30:00Z,28.8425,-94.2433,2.0,252.8459875,22.3439164,-99999.0,'11111222,11111222,99999999' 
TABS,ioos:station:wmo:42050:1,2013-12-01T13:00:00Z,28.8425,-94.2433,2.0,263.248837,21.26744931,-99999.0,'11111222,11111222,99999999' 
TABS,ioos:station:wmo:42050:1,2013-12-01T13:30:00Z,28.8425,-94.2433,2.0,266.5003405,21.79062643,-99999.0,'11111222,11111222,99999999' 
TABS,ioos:station:wmo:42050:1,2013-12-01T14:00:00Z,28.8425,-94.2433,2.0,269.0132379,20.91309877,-99999.0,'11111222,11111222,99999999' 
TABS,ioos:station:wmo:42050:1,2013-12-01T14:30:00Z,28.8425,-94.2433,2.0,275.8661919,20.93963944,-99999.0,'11111222,11111222,99999999' 
TABS,ioos:station:wmo:42050:1,2013-12-01T15:00:00Z,28.8425,-94.2433,2.0,283.3166165,22.96751184,-99999.0,'11111222,11111222,99999999' 
TABS,ioos:station:wmo:42050:1,2013-12-01T15:30:00Z,28.8425,-94.2433,2.0,283.8006451,25.32093403,-99999.0,'11111222,11111222,99999999' 
TABS,ioos:station:wmo:42050:1,2013-12-01T16:00:00Z,28.8425,-94.2433,2.0,290.9001012,24.78039749,-99999.0,'11111222,11111222,99999999' 
TABS,ioos:station:wmo:42050:1,2013-12-01T16:30:00Z,28.8425,-94.2433,2.0,292.5017946,21.58312304,-99999.0,'11111222,11111222,99999999' 
TABS,ioos:station:wmo:42050:1,2013-12-01T17:00:00Z,28.8425,-94.2433,2.0,308.3266312,22.26919397,-99999.0,'11111222,11111222,99999999' 
TABS,ioos:station:wmo:42050:1,2013-12-01T17:30:00Z,28.8425,-94.2433,2.0,309.7935514,23.76492584,-99999.0,'11111222,11111222,99999999' 
TABS,ioos:station:wmo:42050:1,2013-12-01T18:00:00Z,28.8425,-94.2433,2.0,314.4487891,24.97616864,-99999.0,'11111222,11111222,99999999' 
TABS,ioos:station:wmo:42050:1,2013-12-01T18:30:00Z,28.8425,-94.2433,2.0,308.6245625,25.1517892,-99999.0,'11111222,11111222,99999999' 
TABS,ioos:station:wmo:42050:1,2013-12-01T19:00:00Z,28.8425,-94.2433,2.0,307.556705,22.86964145,-99999.0,'11111222,11111222,99999999' 
TABS,ioos:station:wmo:42050:1,2013-12-01T19:30:00Z,28.8425,-94.2433,2.0,301.986164,21.72889781,-99999.0,'11111222,11111222,99999999' 
TABS,ioos:station:wmo:42050:1,2013-12-01T20:00:00Z,28.8425,-94.2433,2.0,305.2316959,20.00417956,-99999.0,'11111222,11111222,99999999' 
TABS,ioos:station:wmo:42050:1,2013-12-01T20:30:00Z,28.8425,-94.2433,2.0,302.2867133,14.26562301,-99999.0,'11111222,11111222,99999999' 
TABS,ioos:station:wmo:42050:1,2013-12-01T21:00:00Z,28.8425,-94.2433,2.0,311.2951857,11.37992091,-99999.0,'11111222,11111222,99999999' 
TABS,ioos:station:wmo:42050:1,2013-12-01T21:30:00Z,28.8425,-94.2433,2.0,304.3251351,8.512396842,-99999.0,'11133222,11111222,99999999' 
TABS,ioos:station:wmo:42050:1,2013-12-01T22:00:00Z,28.8425,-94.2433,2.0,288.7074749,11.31791942,-99999.0,'11111222,11111222,99999999' 
TABS,ioos:station:wmo:42050:1,2013-12-01T22:30:00Z,28.8425,-94.2433,2.0,290.6821735,9.598567601,-99999.0,'11133222,11111222,99999999' 
TABS,ioos:station:wmo:42050:1,2013-12-01T23:00:00Z,28.8425,-94.2433,2.0,284.0724488,11.63928692,-99999.0,'11111222,11111222,99999999' 
TABS,ioos:station:wmo:42050:1,2013-12-01T23:30:00Z,28.8425,-94.2433,2.0,294.9816021,10.67906831,-99999.0,'11111222,11111222,99999999' 
TABS,ioos:station:wmo:42050:1,2013-12-02T00:00:00Z,28.8425,-94.2433,2.0,293.7560735,10.12814396,-99999.0,'11111222,11111222,99999999' 
TABS,ioos:station:wmo:42050:1,2013-12-02T00:30:00Z,28.8425,-94.2433,2.0,289.8679538,8.474390834,-99999.0,'11133222,11111222,99999999' 
TABS,ioos:station:wmo:42050:1,2013-12-02T01:00:00Z,28.8425,-94.2433,2.0,284.4260975,9.633737592,-99999.0,'11133222,11111222,99999999' 
TABS,ioos:station:wmo:42050:1,2013-12-02T01:30:00Z,28.8425,-94.2433,2.0,298.6636074,9.527565271,-99999.0,'11133222,11111222,99999999' 
TABS,ioos:station:wmo:42050:1,2013-12-02T02:00:00Z,28.8425,-94.2433,2.0,300.5736364,7.549543033,-99999.0,'11133222,11111222,99999999' 
TABS,ioos:station:wmo:42050:1,2013-12-02T02:30:00Z,28.8425,-94.2433,2.0,311.1862498,9.035623941,-99999.0,'11133222,11111222,99999999' 
TABS,ioos:station:wmo:42050:1,2013-12-02T03:00:00Z,28.8425,-94.2433,2.0,329.9513985,7.948257671,-99999.0,'11133222,11111222,99999999' 
TABS,ioos:station:wmo:42050:1,2013-12-02T03:30:00Z,28.8425,-94.2433,2.0,337.6115261,7.246212804,-99999.0,'11133222,11111222,99999999' 
TABS,ioos:station:wmo:42050:1,2013-12-02T04:00:00Z,28.8425,-94.2433,2.0,348.0575787,7.103759568,-99999.0,'11133222,11111222,99999999' 
TABS,ioos:station:wmo:42050:1,2013-12-02T04:30:00Z,28.8425,-94.2433,2.0,326.0393935,5.280804863,-99999.0,'11133222,11111222,99999999' 
TABS,ioos:station:wmo:42050:1,2013-12-02T05:00:00Z,28.8425,-94.2433,2.0,318.2927644,5.786613863,-99999.0,'11133222,11111222,99999999' 
TABS,ioos:station:wmo:42050:1,2013-12-02T05:30:00Z,28.8425,-94.2433,2.0,295.2160832,6.267200332,-99999.0,'11133222,11111222,99999999' 
TABS,ioos:station:wmo:42050:1,2013-12-02T06:00:00Z,28.8425,-94.2433,2.0,279.8662048,5.602856414,-99999.0,'11133222,11111222,99999999' 
TABS,ioos:station:wmo:42050:1,2013-12-02T06:30:00Z,28.8425,-94.2433,2.0,251.8132429,8.746942323,-99999.0,'11133222,11111222,99999999' 
TABS,ioos:station:wmo:42050:1,2013-12-02T07:00:00Z,28.8425,-94.2433,2.0,247.0377351,9.53555452,-99999.0,'11133222,11111222,99999999' 
TABS,ioos:station:wmo:42050:1,2013-12-02T07:30:00Z,28.8425,-94.2433,2.0,238.8357013,14.7249584,-99999.0,'11111222,11111222,99999999' 
TABS,ioos:station:wmo:42050:1,2013-12-02T08:00:00Z,28.8425,-94.2433,2.0,229.2638377,16.16678694,-99999.0,'11111222,11111222,99999999' 
TABS,ioos:station:wmo:42050:1,2013-12-02T08:30:00Z,28.8425,-94.2433,2.0,220.8926848,20.23987401,-99999.0,'11111222,11111222,99999999' 
TABS,ioos:station:wmo:42050:1,2013-12-02T09:00:00Z,28.8425,-94.2433,2.0,216.6061219,20.00621154,-99999.0,'11111222,11111222,99999999' 
TABS,ioos:station:wmo:42050:1,2013-12-02T09:30:00Z,28.8425,-94.2433,2.0,211.5434405,22.36456125,-99999.0,'11111222,11111222,99999999' 
TABS,ioos:station:wmo:42050:1,2013-12-02T10:00:00Z,28.8425,-94.2433,2.0,213.1325728,24.24154492,-99999.0,'11111222,11111222,99999999' 
TABS,ioos:station:wmo:42050:1,2013-12-02T10:30:00Z,28.8425,-94.2433,2.0,216.572735,23.54631606,-99999.0,'11111222,11111222,99999999' 
TABS,ioos:station:wmo:42050:1,2013-12-02T11:00:00Z,28.8425,-94.2433,2.0,216.8992024,27.09800362,-99999.0,'11111222,11111222,99999999' 
TABS,ioos:station:wmo:42050:1,2013-12-02T11:30:00Z,28.8425,-94.2433,2.0,215.5642183,27.30308591,-99999.0,'11111222,11111222,99999999' 
TABS,ioos:station:wmo:42050:1,2013-12-02T12:00:00Z,28.8425,-94.2433,2.0,221.0282351,27.05523424,-99999.0,'11111222,11111222,99999999' 
TABS,ioos:station:wmo:42050:1,2013-12-02T12:30:00Z,28.8425,-94.2433,2.0,230.1028071,29.73148163,-99999.0,'11111222,11111222,99999999' 
TABS,ioos:station:wmo:42050:1,2013-12-02T13:00:00Z,28.8425,-94.2433,2.0,238.0664806,31.11944248,-99999.0,'11111222,11111222,99999999' 
TABS,ioos:station:wmo:42050:1,2013-12-02T13:30:00Z,28.8425,-94.2433,2.0,244.1971461,30.57870174,-99999.0,'11111222,11111222,99999999' 
TABS,ioos:station:wmo:42050:1,2013-12-02T14:00:00Z,28.8425,-94.2433,2.0,252.2499953,26.43853249,-99999.0,'11111222,11111222,99999999' 
TABS,ioos:station:wmo:42050:1,2013-12-02T14:30:00Z,28.8425,-94.2433,2.0,256.9809276,26.76802757,-99999.0,'11111222,11111222,99999999' 
TABS,ioos:station:wmo:42050:1,2013-12-02T15:00:00Z,28.8425,-94.2433,2.0,257.2053066,22.93955754,-99999.0,'11111222,11111222,99999999' 
TABS,ioos:station:wmo:42050:1,2013-12-02T15:30:00Z,28.8425,-94.2433,2.0,254.2768243,21.92016423,-99999.0,'11111222,11111222,99999999' 
TABS,ioos:station:wmo:42050:1,2013-12-02T16:00:00Z,28.8425,-94.2433,2.0,260.8013551,20.33143871,-99999.0,'11111222,11111222,99999999' 
TABS,ioos:station:wmo:42050:1,2013-12-02T16:30:00Z,28.8425,-94.2433,2.0,267.4849298,19.82909479,-99999.0,'11111222,11111222,99999999' 
TABS,ioos:station:wmo:42050:1,2013-12-02T17:00:00Z,28.8425,-94.2433,2.0,275.2951601,18.09721802,-99999.0,'11111222,11111222,99999999' 
TABS,ioos:station:wmo:42050:1,2013-12-02T17:30:00Z,28.8425,-94.2433,2.0,281.7121131,18.17845153,-99999.0,'11111222,11111222,99999999' 
TABS,ioos:station:wmo:42050:1,2013-12-02T18:00:00Z,28.8425,-94.2433,2.0,282.4737341,16.80669509,-99999.0,'11111222,11111222,99999999' 
TABS,ioos:station:wmo:42050:1,2013-12-02T18:30:00Z,28.8425,-94.2433,2.0,297.6519213,12.97152651,-99999.0,'11111222,11111222,99999999' 
TABS,ioos:station:wmo:42050:1,2013-12-02T19:00:00Z,28.8425,-94.2433,2.0,306.714538,10.30403804,-99999.0,'11111222,11111222,99999999' 
TABS,ioos:station:wmo:42050:1,2013-12-02T19:30:00Z,28.8425,-94.2433,2.0,332.5818825,8.708214513,-99999.0,'11133222,11111222,99999999' 
TABS,ioos:station:wmo:42050:1,2013-12-02T20:00:00Z,28.8425,-94.2433,2.0,319.7129564,7.918080575,-99999.0,'11133222,11111222,99999999' 
TABS,ioos:station:wmo:42050:1,2013-12-02T20:30:00Z,28.8425,-94.2433,2.0,333.2032565,5.523133169,-99999.0,'11133222,11111222,99999999' 
TABS,ioos:station:wmo:42050:1,2013-12-02T21:00:00Z,28.8425,-94.2433,2.0,305.7639299,7.665428886,-99999.0,'11133222,11111222,99999999' 
TABS,ioos:station:wmo:42050:1,2013-12-02T21:30:00Z,28.8425,-94.2433,2.0,85.47283957,3.420672449,-99999.0,'11133222,11111222,99999999' 
TABS,ioos:station:wmo:42050:1,2013-12-02T22:00:00Z,28.8425,-94.2433,2.0,219.559365,1.789972067,-99999.0,'11133222,11111222,99999999' 
TABS,ioos:station:wmo:42050:1,2013-12-02T22:30:00Z,28.8425,-94.2433,2.0,192.0516698,5.60350783,-99999.0,'11133222,11111222,99999999' 
TABS,ioos:station:wmo:42050:1,2013-12-02T23:00:00Z,28.8425,-94.2433,2.0,220.710541,3.403645105,-99999.0,'11133222,11111222,99999999' 
TABS,ioos:station:wmo:42050:1,2013-12-02T23:30:00Z,28.8425,-94.2433,2.0,170.5663465,6.528284614,-99999.0,'11133222,11111222,99999999' 
TABS,ioos:station:wmo:42050:1,2013-12-03T00:00:00Z,28.8425,-94.2433,2.0,197.6220456,7.134816045,-99999.0,'11133222,11111222,99999999' 
TABS,ioos:station:wmo:42050:1,2013-12-03T00:30:00Z,28.8425,-94.2433,2.0,174.917697,10.15994094,-99999.0,'11111222,11111222,99999999' 
TABS,ioos:station:wmo:42050:1,2013-12-03T01:00:00Z,28.8425,-94.2433,2.0,193.6501768,8.644165662,-99999.0,'11133222,11111222,99999999' 
TABS,ioos:station:wmo:42050:1,2013-12-03T01:30:00Z,28.8425,-94.2433,2.0,218.9095902,6.798308613,-99999.0,'11133222,11111222,99999999' 
TABS,ioos:station:wmo:42050:1,2013-12-03T02:00:00Z,28.8425,-94.2433,2.0,250.0506035,4.30852643,-99999.0,'11133222,11111222,99999999' 
TABS,ioos:station:wmo:42050:1,2013-12-03T02:30:00Z,28.8425,-94.2433,2.0,206.5647786,3.108134489,-99999.0,'11133222,11111222,99999999' 
TABS,ioos:station:wmo:42050:1,2013-12-03T03:00:00Z,28.8425,-94.2433,2.0,145.4373457,2.732215218,-99999.0,'11133222,11111222,99999999' 
TABS,ioos:station:wmo:42050:1,2013-12-03T03:30:00Z,28.8425,-94.2433,2.0,318.3234284,2.195723116,-99999.0,'11133222,11111222,99999999' 
TABS,ioos:station:wmo:42050:1,2013-12-03T04:00:00Z,28.8425,-94.2433,2.0,39.31408423,1.641493223,-99999.0,'11133222,11111222,99999999' 
TABS,ioos:station:wmo:42050:1,2013-12-03T04:30:00Z,28.8425,-94.2433,2.0,64.31641288,2.907232361,-99999.0,'11133222,11111222,99999999' 
TABS,ioos:station:wmo:42050:1,2013-12-03T05:00:00Z,28.8425,-94.2433,2.0,110.1918899,5.156937075,-99999.0,'11133222,11111222,99999999' 
TABS,ioos:station:wmo:42050:1,2013-12-03T05:30:00Z,28.8425,-94.2433,2.0,110.452617,5.838021925,-99999.0,'11133222,11111222,99999999' 
TABS,ioos:station:wmo:42050:1,2013-12-03T06:00:00Z,28.8425,-94.2433,2.0,138.7854743,5.676310421,-99999.0,'11133222,11111222,99999999' 
TABS,ioos:station:wmo:42050:1,2013-12-03T06:30:00Z,28.8425,-94.2433,2.0,159.7537673,8.0045612,-99999.0,'11133222,11111222,99999999' 
TABS,ioos:station:wmo:42050:1,2013-12-03T07:00:00Z,28.8425,-94.2433,2.0,155.3970529,10.44856449,-99999.0,'11111222,11111222,99999999' 
TABS,ioos:station:wmo:42050:1,2013-12-03T07:30:00Z,28.8425,-94.2433,2.0,184.6338867,11.3872253,-99999.0,'11111222,11111222,99999999' 
TABS,ioos:station:wmo:42050:1,2013-12-03T08:00:00Z,28.8425,-94.2433,2.0,175.8523896,17.83670934,-99999.0,'11111222,11111222,99999999' 
TABS,ioos:station:wmo:42050:1,2013-12-03T08:30:00Z,28.8425,-94.2433,2.0,190.9297205,16.56041062,-99999.0,'11111222,11111222,99999999' 
TABS,ioos:station:wmo:42050:1,2013-12-03T09:00:00Z,28.8425,-94.2433,2.0,195.5710317,21.45755112,-99999.0,'11111222,11111222,99999999' 
TABS,ioos:station:wmo:42050:1,2013-12-03T09:30:00Z,28.8425,-94.2433,2.0,203.9058684,24.77547376,-99999.0,'11111222,11111222,99999999' 
TABS,ioos:station:wmo:42050:1,2013-12-03T10:00:00Z,28.8425,-94.2433,2.0,208.4426517,27.02174125,-99999.0,'11111222,11111222,99999999' 
TABS,ioos:station:wmo:42050:1,2013-12-03T10:30:00Z,28.8425,-94.2433,2.0,217.2438052,27.5605878,-99999.0,'11111222,11111222,99999999' 
TABS,ioos:station:wmo:42050:1,2013-12-03T11:00:00Z,28.8425,-94.2433,2.0,216.3153429,27.91130595,-99999.0,'11111222,11111222,99999999' 
TABS,ioos:station:wmo:42050:1,2013-12-03T11:30:00Z,28.8425,-94.2433,2.0,223.021726,27.65728295,-99999.0,'11111222,11111222,99999999' 
TABS,ioos:station:wmo:42050:1,2013-12-03T12:00:00Z,28.8425,-94.2433,2.0,219.1253691,27.08298728,-99999.0,'11111222,11111222,99999999' 
TABS,ioos:station:wmo:42050:1,2013-12-03T12:30:00Z,28.8425,-94.2433,2.0,217.5061931,27.00166662,-99999.0,'11111222,11111222,99999999' 
TABS,ioos:station:wmo:42050:1,2013-12-03T13:00:00Z,28.8425,-94.2433,2.0,229.7120097,27.54298822,-99999.0,'11111222,11111222,99999999' 
TABS,ioos:station:wmo:42050:1,2013-12-03T13:30:00Z,28.8425,-94.2433,2.0,230.7969536,26.04158213,-99999.0,'11111222,11111222,99999999' 
TABS,ioos:station:wmo:42050:1,2013-12-03T14:00:00Z,28.8425,-94.2433,2.0,236.4498405,23.7939362,-99999.0,'11111222,11111222,99999999' 
TABS,ioos:station:wmo:42050:1,2013-12-03T14:30:00Z,28.8425,-94.2433,2.0,235.6455657,24.64975862,-99999.0,'11111222,11111222,99999999' 
TABS,ioos:station:wmo:42050:1,2013-12-03T15:00:00Z,28.8425,-94.2433,2.0,242.7638198,22.15647986,-99999.0,'11111222,11111222,99999999' 
TABS,ioos:station:wmo:42050:1,2013-12-03T15:30:00Z,28.8425,-94.2433,2.0,250.462173,21.85854753,-99999.0,'11111222,11111222,99999999' 
TABS,ioos:station:wmo:42050:1,2013-12-03T16:00:00Z,28.8425,-94.2433,2.0,260.1840032,17.59760211,-99999.0,'11111222,11111222,99999999' 
TABS,ioos:station:wmo:42050:1,2013-12-03T16:30:00Z,28.8425,-94.2433,2.0,260.9367442,19.80727139,-99999.0,'11111222,11111222,99999999' 
TABS,ioos:station:wmo:42050:1,2013-12-03T17:00:00Z,28.8425,-94.2433,2.0,273.7930821,16.02509594,-99999.0,'11111222,11111222,99999999' 
TABS,ioos:station:wmo:42050:1,2013-12-03T17:30:00Z,28.8425,-94.2433,2.0,280.1689139,16.53979444,-99999.0,'11111222,11111222,99999999' 
TABS,ioos:station:wmo:42050:1,2013-12-03T18:00:00Z,28.8425,-94.2433,2.0,284.0695885,16.86593016,-99999.0,'11111222,11111222,99999999' 
TABS,ioos:station:wmo:42050:1,2013-12-03T18:30:00Z,28.8425,-94.2433,2.0,296.7718461,13.65351969,-99999.0,'11111222,11111222,99999999' 
TABS,ioos:station:wmo:42050:1,2013-12-03T19:00:00Z,28.8425,-94.2433,2.0,305.1330865,12.00751848,-99999.0,'11111222,11111222,99999999' 
TABS,ioos:station:wmo:42050:1,2013-12-03T19:30:00Z,28.8425,-94.2433,2.0,312.4108199,8.451485077,-99999.0,'11133222,11111222,99999999' 
TABS,ioos:station:wmo:42050:1,2013-12-03T20:00:00Z,28.8425,-94.2433,2.0,313.6870487,8.947250974,-99999.0,'11133222,11111222,99999999' 
TABS,ioos:station:wmo:42050:1,2013-12-03T20:30:00Z,28.8425,-94.2433,2.0,326.0704924,5.302980294,-99999.0,'11133222,11111222,99999999' 
TABS,ioos:station:wmo:42050:1,2013-12-03T21:00:00Z,28.8425,-94.2433,2.0,289.8807268,2.38195298,-99999.0,'11133222,11111222,99999999' 
TABS,ioos:station:wmo:42050:1,2013-12-03T21:30:00Z,28.8425,-94.2433,2.0,329.3005597,2.232935288,-99999.0,'11133222,11111222,99999999' 
TABS,ioos:station:wmo:42050:1,2013-12-03T22:00:00Z,28.8425,-94.2433,2.0,244.0340742,2.992022727,-99999.0,'11133222,11111222,99999999' 
TABS,ioos:station:wmo:42050:1,2013-12-03T22:30:00Z,28.8425,-94.2433,2.0,235.6193148,3.913693907,-99999.0,'11133222,11111222,99999999' 
TABS,ioos:station:wmo:42050:1,2013-12-03T23:00:00Z,28.8425,-94.2433,2.0,193.4954913,9.512670498,-99999.0,'11133222,11111222,99999999' 
TABS,ioos:station:wmo:42050:1,2013-12-03T23:30:00Z,28.8425,-94.2433,2.0,192.0112398,10.09093157,-99999.0,'11111222,11111222,99999999' 
TABS,ioos:station:wmo:42050:1,2013-12-04T00:00:00Z,28.8425,-94.2433,2.0,197.5454773,11.41087201,-99999.0,'11111222,11111222,99999999' 
TABS,ioos:station:wmo:42050:1,2013-12-04T00:30:00Z,28.8425,-94.2433,2.0,191.3272817,12.77892797,-99999.0,'11111222,11111222,99999999' 
TABS,ioos:station:wmo:42050:1,2013-12-04T01:00:00Z,28.8425,-94.2433,2.0,196.0492821,14.35969707,-99999.0,'11111222,11111222,99999999' 
TABS,ioos:station:wmo:42050:1,2013-12-04T01:30:00Z,28.8425,-94.2433,2.0,199.2595566,12.52075477,-99999.0,'11111222,11111222,99999999' 
TABS,ioos:station:wmo:42050:1,2013-12-04T02:00:00Z,28.8425,-94.2433,2.0,200.276722,14.65840714,-99999.0,'11111222,11111222,99999999' 
TABS,ioos:station:wmo:42050:1,2013-12-04T02:30:00Z,28.8425,-94.2433,2.0,193.0183047,12.56290173,-99999.0,'11111222,11111222,99999999' 
TABS,ioos:station:wmo:42050:1,2013-12-04T03:00:00Z,28.8425,-94.2433,2.0,202.7657028,14.78158652,-99999.0,'11111222,11111222,99999999' 
TABS,ioos:station:wmo:42050:1,2013-12-04T03:30:00Z,28.8425,-94.2433,2.0,206.1841566,11.44444844,-99999.0,'11111222,11111222,99999999' 
TABS,ioos:station:wmo:42050:1,2013-12-04T04:00:00Z,28.8425,-94.2433,2.0,210.6817864,8.720808449,-99999.0,'11133222,11111222,99999999' 
TABS,ioos:station:wmo:42050:1,2013-12-04T04:30:00Z,28.8425,-94.2433,2.0,212.3471574,8.167429216,-99999.0,'11133222,11111222,99999999' 
TABS,ioos:station:wmo:42050:1,2013-12-04T05:00:00Z,28.8425,-94.2433,2.0,232.2992034,6.622695826,-99999.0,'11133222,11111222,99999999' 
TABS,ioos:station:wmo:42050:1,2013-12-04T05:30:00Z,28.8425,-94.2433,2.0,217.5595302,3.986289001,-99999.0,'11133222,11111222,99999999' 
TABS,ioos:station:wmo:42050:1,2013-12-04T06:00:00Z,28.8425,-94.2433,2.0,258.905882,3.637980209,-99999.0,'11133222,11111222,99999999' 
TABS,ioos:station:wmo:42050:1,2013-12-04T06:30:00Z,28.8425,-94.2433,2.0,242.8836873,4.651236395,-99999.0,'11133222,11111222,99999999' 
TABS,ioos:station:wmo:42050:1,2013-12-04T07:00:00Z,28.8425,-94.2433,2.0,243.6650002,3.336240399,-99999.0,'11133222,11111222,99999999' 
TABS,ioos:station:wmo:42050:1,2013-12-04T07:30:00Z,28.8425,-94.2433,2.0,219.0190988,4.479151705,-99999.0,'11133222,11111222,99999999' 
TABS,ioos:station:wmo:42050:1,2013-12-04T08:00:00Z,28.8425,-94.2433,2.0,200.8488922,4.804601961,-99999.0,'11133222,11111222,99999999' 
TABS,ioos:station:wmo:42050:1,2013-12-04T08:30:00Z,28.8425,-94.2433,2.0,214.7801021,5.101391967,-99999.0,'11133222,11111222,99999999' 
TABS,ioos:station:wmo:42050:1,2013-12-04T09:00:00Z,28.8425,-94.2433,2.0,204.1591447,6.49926919,-99999.0,'11133222,11111222,99999999' 
TABS,ioos:station:wmo:42050:1,2013-12-04T09:30:00Z,28.8425,-94.2433,2.0,201.8507718,10.72019589,-99999.0,'11111222,11111222,99999999' 
TABS,ioos:station:wmo:42050:1,2013-12-04T10:00:00Z,28.8425,-94.2433,2.0,196.0668335,12.93527348,-99999.0,'11111222,11111222,99999999' 
TABS,ioos:station:wmo:42050:1,2013-12-04T10:30:00Z,28.8425,-94.2433,2.0,206.2326843,14.65990791,-99999.0,'11111222,11111222,99999999' 
TABS,ioos:station:wmo:42050:1,2013-12-04T11:00:00Z,28.8425,-94.2433,2.0,204.2261161,19.17907714,-99999.0,'11111222,11111222,99999999' 
TABS,ioos:station:wmo:42050:1,2013-12-04T11:30:00Z,28.8425,-94.2433,2.0,207.1964,19.47286317,-99999.0,'11111222,11111222,99999999' 
TABS,ioos:station:wmo:42050:1,2013-12-04T12:00:00Z,28.8425,-94.2433,2.0,206.1780251,23.18855321,-99999.0,'11111222,11111222,99999999' 
TABS,ioos:station:wmo:42050:1,2013-12-04T12:30:00Z,28.8425,-94.2433,2.0,209.8986215,22.14772223,-99999.0,'11111222,11111222,99999999' 
TABS,ioos:station:wmo:42050:1,2013-12-04T13:00:00Z,28.8425,-94.2433,2.0,216.2377433,23.39542263,-99999.0,'11111222,11111222,99999999' 
TABS,ioos:station:wmo:42050:1,2013-12-04T13:30:00Z,28.8425,-94.2433,2.0,221.1417243,23.3308251,-99999.0,'11111222,11111222,99999999' 
TABS,ioos:station:wmo:42050:1,2013-12-04T14:00:00Z,28.8425,-94.2433,2.0,225.8481734,21.96514512,-99999.0,'11111222,11111222,99999999' 
TABS,ioos:station:wmo:42050:1,2013-12-04T14:30:00Z,28.8425,-94.2433,2.0,233.7687261,24.21150553,-99999.0,'11111222,11111222,99999999' 
TABS,ioos:station:wmo:42050:1,2013-12-04T15:00:00Z,28.8425,-94.2433,2.0,239.6432465,24.75378153,-99999.0,'11111222,11111222,99999999' 
TABS,ioos:station:wmo:42050:1,2013-12-04T15:30:00Z,28.8425,-94.2433,2.0,245.4673218,20.9293502,-99999.0,'11111222,11111222,99999999' 
TABS,ioos:station:wmo:42050:1,2013-12-04T16:00:00Z,28.8425,-94.2433,2.0,250.3393923,18.04175712,-99999.0,'11111222,11111222,99999999' 